Tracking 29892 objects as of 21-Nov-2024
HD Live streaming from Space Station
objects crossing your sky now

OBJECT Q

Track OBJECT Q now!
10-day predictions


NORAD ID: 51838
Int'l Code: 2022-019Q
Perigee: 447.5 km
Apogee: 459.3 km
Inclination: 97.4 °
Period: 93.5 minutes
Semi major axis: 6824 km
RCS: Unknown
Launch date: February 27, 2022
Source: People's Republic of China (PRC)
Launch site: Wenchang Satellite Launch Center (WSC)
Your satellite tracking list
Your tracking list is empty




NASA's NSSDC Master Catalog

Two Line Element Set (TLE):
1 51838U 22019Q   24326.19342615  .00042835  00000-0  10717-2 0  9997
2 51838  97.4185  41.4461 0008602  41.0616 319.1275 15.39946710151487
Source of the keplerian elements: AFSPC